Simultaneous Nadir Overpasses (SNOs) Predictions

Prediction of SNOs between GOES-17 and TERRA Satellite Orbit:

Table of predicted SNOs for the next 14.0 days since TLE Epoch: 4/30/2022
Index Date Time (GOES-17) GOES-17 Lat,Lon TERRA Lat,Lon Distance(km) Time Diff (sec)
1 05/01/2022 19:18:11 0.05,-137.20 -0.59,-134.21 340.01 80
2 05/02/2022 07:36:54 -0.05,-137.20 -0.53,-139.40 250.74 80
3 05/04/2022 07:24:39 -0.04,-137.19 0.11,-136.45 84.69 80
4 05/06/2022 07:12:24 -0.03,-137.18 0.76,-133.49 419.46 80
5 05/06/2022 19:33:38 0.03,-137.18 0.36,-138.65 167.44 80
6 05/08/2022 19:24:03 0.03,-137.16 -0.30,-135.70 166.84 80
7 05/09/2022 07:42:46 -0.02,-137.15 -0.80,-140.89 424.28 80
8 05/11/2022 07:30:30 -0.02,-137.13 -0.18,-137.93 90.37 80
9 05/13/2022 07:20:54 -0.02,-137.10 0.46,-134.97 243.21 80
10 05/13/2022 19:39:28 0.02,-137.09 0.65,-140.12 344.15 80
